| time (UTC) | temp F | wind direction | speed knots | gust knots | rain 1hr in | rain 24hr in | rain mn in | humidity % | barometer mb |
| 20260507021033 | 60 | 127 | 4.3 | 9.6 | 0.00 | 0.00 | 0.00 | 84 | 1014.4 |
| 20260507020535 | 60 | 179 | 3.5 | 8.7 | 0.00 | 0.00 | 0.00 | 84 | 1014.4 |
| 20260507020051 | 60 | 128 | 1.7 | 6.1 | 0.00 | 0.00 | 0.00 | 84 | 1014.4 |
| 20260507015535 | 60 | 140 | 2.6 | 7.8 | 0.00 | 0.00 | 0.00 | 84 | 1014.1 |
| 20260507015038 | 60 | 162 | 2.6 | 7.8 | 0.00 | 0.00 | 0.00 | 83 | 1014.0 |
| 20260507014550 | 60 | 190 | 3.5 | 7.8 | 0.00 | 0.00 | 0.00 | 83 | 1013.9 |
| 20260507014037 | 60 | 159 | 1.7 | 7.8 | 0.00 | 0.00 | 0.00 | 83 | 1014.0 |
| 20260507013541 | 60 | 133 | 2.6 | 7.8 | 0.00 | 0.00 | 0.00 | 83 | 1013.9 |
| 20260507013057 | 60 | 169 | 4.3 | 7.8 | 0.00 | 0.00 | 0.00 | 83 | 1013.7 |
| 20260507012537 | 60 | 184 | 2.6 | 7.8 | 0.00 | 0.00 | 0.00 | 83 | 1013.6 |
| 20260507012037 | 60 | 138 | 2.6 | 7.8 | 0.00 | 0.00 | 0.00 | 83 | 1013.4 |
| 20260507011546 | 60 | 130 | 3.5 | 7.8 | 0.00 | 0.00 | 0.00 | 83 | 1013.4 |
| 20260507011037 | 60 | 167 | 2.6 | 7.0 | 0.00 | 0.00 | 0.00 | 83 | 1013.5 |
| 20260507010537 | 60 | 161 | 1.7 | 11.3 | 0.00 | 0.00 | 0.00 | 83 | 1013.5 |
| 20260507010045 | 60 | 162 | 4.3 | 11.3 | 0.00 | 0.00 | 0.00 | 83 | 1013.5 |
| 20260507005538 | 60 | 169 | 4.3 | 11.3 | 0.00 | 0.00 | 0.00 | 83 | 1013.2 |
| 20260507005037 | 60 | 141 | 6.1 | 11.3 | 0.00 | 0.00 | 0.00 | 82 | 1013.0 |
| 20260507004542 | 60 | 152 | 4.3 | 9.6 | 0.00 | 0.00 | 0.00 | 82 | 1013.1 |
| 20260507004038 | 60 | 153 | 4.3 | 8.7 | 0.00 | 0.00 | 0.00 | 82 | 1013.8 |
| 20260507003542 | 60 | 117 | 3.5 | 8.7 | 0.00 | 0.00 | 0.00 | 83 | 1013.3 |
| 20260507003047 | 60 | 182 | 3.5 | 9.6 | 0.00 | 0.00 | 0.00 | 82 | 1013.2 |
| 20260507002541 | 60 | 158 | 4.3 | 11.3 | 0.00 | 0.00 | 0.00 | 82 | 1013.0 |
| 20260507002038 | 60 | 190 | 3.5 | 11.3 | 0.00 | 0.00 | 0.00 | 82 | 1012.8 |
| 20260507001549 | 61 | 168 | 4.3 | 8.7 | 0.00 | 0.00 | 0.00 | 82 | 1012.9 |
| 20260507001037 | 61 | 174 | 4.3 | 9.6 | 0.00 | 0.00 | 0.00 | 82 | 1013.0 |
| 20260507000540 | 61 | 185 | 2.6 | 10.4 | 0.00 | 0.00 | 0.00 | 83 | 1012.7 |
| 20260507000053 | 60 | 147 | 5.2 | 13.0 | 0.00 | 0.00 | 0.00 | 82 | 1013.0 |
| 20260506235537 | 60 | 148 | 5.2 | 13.0 | 0.00 | 0.00 | 0.00 | 82 | 1012.9 |
| 20260506235040 | 60 | 128 | 4.3 | 14.8 | 0.00 | 0.00 | 0.00 | 82 | 1012.7 |
| 20260506234553 | 60 | 143 | 6.1 | 14.8 | 0.00 | 0.00 | 0.00 | 82 | 1012.8 |
| 20260506234041 | 61 | 123 | 5.2 | 14.8 | 0.00 | 0.00 | 0.00 | 82 | 1012.7 |
| 20260506233538 | 61 | 134 | 5.2 | 13.9 | 0.00 | 0.00 | 0.00 | 82 | 1012.6 |
| 20260506233046 | 61 | 171 | 7.0 | 13.9 | 0.00 | 0.00 | 0.00 | 82 | 1012.7 |
| 20260506232537 | 61 | 163 | 7.0 | 12.2 | 0.00 | 0.00 | 0.00 | 82 | 1012.8 |
| 20260506232038 | 61 | 161 | 5.2 | 16.5 | 0.00 | 0.00 | 0.00 | 82 | 1012.6 |
| 20260506231545 | 61 | 173 | 5.2 | 16.5 | 0.00 | 0.00 | 0.00 | 82 | 1012.4 |
| 20260506231038 | 61 | 219 | 3.5 | 13.0 | 0.00 | 0.00 | 0.00 | 81 | 1012.4 |
| 20260506230535 | 61 | 153 | 4.3 | 10.4 | 0.00 | 0.00 | 0.00 | 81 | 1012.4 |
| 20260506230055 | 61 | 138 | 3.5 | 13.0 | 0.00 | 0.00 | 0.00 | 82 | 1012.3 |
| 20260506225535 | 61 | 143 | 5.2 | 13.0 | 0.00 | 0.00 | 0.00 | 82 | 1012.4 |
| 20260506225038 | 61 | 173 | 7.0 | 11.3 | 0.00 | 0.00 | 0.00 | 81 | 1012.5 |
| 20260506224601 | 61 | 151 | 5.2 | 12.2 | 0.00 | 0.00 | 0.00 | 82 | 1012.4 |
| 20260506224037 | 61 | 188 | 4.3 | 12.2 | 0.00 | 0.00 | 0.00 | 82 | 1012.6 |
| 20260506223537 | 61 | 159 | 5.2 | 12.2 | 0.00 | 0.00 | 0.00 | 83 | 1012.5 |
| 20260506223046 | 61 | 192 | 6.1 | 13.0 | 0.00 | 0.00 | 0.00 | 82 | 1012.4 |
| 20260506222538 | 61 | 180 | 7.0 | 13.0 | 0.00 | 0.00 | 0.00 | 82 | 1012.3 |
| 20260506222037 | 61 | 155 | 5.2 | 14.8 | 0.00 | 0.00 | 0.00 | 82 | 1012.4 |
| 20260506221547 | 61 | 134 | 6.1 | 14.8 | 0.00 | 0.00 | 0.00 | 82 | 1012.4 |
| 20260506221035 | 62 | 126 | 6.1 | 12.2 | 0.00 | 0.00 | 0.00 | 82 | 1012.3 |
| 20260506220537 | 62 | 145 | 6.1 | 12.2 | 0.00 | 0.00 | 0.00 | 81 | 1012.2 |
| 20260506220046 | 62 | 160 | 5.2 | 13.0 | 0.00 | 0.00 | 0.00 | 83 | 1012.3 |
| 20260506215536 | 61 | 143 | 7.8 | 13.9 | 0.00 | 0.00 | 0.00 | 83 | 1012.4 |
| 20260506215037 | 61 | 164 | 5.2 | 13.9 | 0.00 | 0.00 | 0.00 | 83 | 1012.4 |
| 20260506214604 | 62 | 188 | 7.0 | 13.9 | 0.00 | 0.00 | 0.00 | 82 | 1012.6 |
| 20260506214037 | 62 | 161 | 7.0 | 14.8 | 0.00 | 0.00 | 0.00 | 82 | 1012.6 |
| 20260506213538 | 62 | 192 | 7.0 | 14.8 | 0.00 | 0.00 | 0.00 | 82 | 1012.4 |
| 20260506213051 | 63 | 167 | 7.0 | 14.8 | 0.00 | 0.00 | 0.00 | 81 | 1012.4 |
| 20260506212537 | 63 | 142 | 6.1 | 14.8 | 0.00 | 0.00 | 0.00 | 81 | 1012.3 |
| 20260506212034 | 64 | 162 | 5.2 | 14.8 | 0.00 | 0.00 | 0.00 | 81 | 1012.3 |
| 20260506211548 | 63 | 139 | 5.2 | 13.9 | 0.00 | 0.00 | 0.00 | 82 | 1012.3 |
| 20260506211035 | 64 | 145 | 6.1 | 14.8 | 0.00 | 0.00 | 0.00 | 80 | 1012.3 |
| 20260506210535 | 64 | 154 | 7.0 | 15.6 | 0.00 | 0.00 | 0.00 | 79 | 1012.4 |
| 20260506210051 | 65 | 129 | 7.8 | 15.6 | 0.00 | 0.00 | 0.00 | 79 | 1012.4 |
| 20260506205537 | 65 | 109 | 7.0 | 14.8 | 0.00 | 0.00 | 0.00 | 80 | 1012.2 |
| 20260506205034 | 66 | 129 | 7.0 | 17.4 | 0.00 | 0.00 | 0.00 | 79 | 1012.4 |
| 20260506204546 | 67 | 112 | 8.7 | 17.4 | 0.00 | 0.00 | 0.00 | 78 | 1012.4 |
| 20260506204038 | 67 | 146 | 7.8 | 15.6 | 0.00 | 0.00 | 0.00 | 79 | 1012.4 |
| 20260506203535 | 67 | 163 | 7.8 | 15.6 | 0.00 | 0.00 | 0.00 | 78 | 1012.2 |
| 20260506203051 | 67 | 126 | 7.8 | 14.8 | 0.00 | 0.00 | 0.00 | 79 | 1012.3 |
| 20260506202538 | 67 | 129 | 9.6 | 14.8 | 0.00 | 0.00 | 0.00 | 79 | 1012.4 |
| 20260506202037 | 66 | 155 | 7.0 | 13.9 | 0.00 | 0.00 | 0.00 | 81 | 1012.3 |
| 20260506201546 | 66 | 171 | 7.0 | 13.9 | 0.00 | 0.00 | 0.00 | 80 | 1012.6 |
| 20260506201038 | 66 | 134 | 7.8 | 15.6 | 0.00 | 0.00 | 0.00 | 80 | 1012.5 |
| 20260506200539 | 66 | 117 | 7.0 | 17.4 | 0.00 | 0.00 | 0.00 | 80 | 1012.5 |
| 20260506200043 | 66 | 116 | 7.0 | 17.4 | 0.00 | 0.00 | 0.00 | 80 | 1012.6 |
| 20260506195535 | 66 | 175 | 8.7 | 17.4 | 0.00 | 0.00 | 0.00 | 80 | 1012.4 |
| 20260506195040 | 66 | 118 | 7.0 | 13.9 | 0.00 | 0.00 | 0.00 | 80 | 1012.4 |
| 20260506194556 | 67 | 181 | 7.8 | 13.9 | 0.00 | 0.00 | 0.00 | 80 | 1012.3 |
| 20260506194040 | 67 | 186 | 5.2 | 15.6 | 0.00 | 0.00 | 0.00 | 80 | 1012.3 |
| 20260506193537 | 67 | 133 | 7.0 | 15.6 | 0.00 | 0.00 | 0.00 | 80 | 1012.3 |
| 20260506193049 | 67 | 150 | 7.8 | 16.5 | 0.00 | 0.00 | 0.00 | 80 | 1012.2 |
| 20260506192538 | 67 | 165 | 7.8 | 16.5 | 0.00 | 0.00 | 0.00 | 80 | 1012.2 |
| 20260506192035 | 68 | 147 | 7.8 | 16.5 | 0.00 | 0.00 | 0.00 | 80 | 1012.3 |
| 20260506191551 | 68 | 130 | 7.0 | 16.5 | 0.00 | 0.00 | 0.00 | 80 | 1012.2 |
| 20260506191038 | 70 | 179 | 8.7 | 16.5 | 0.00 | 0.00 | 0.00 | 77 | 1012.3 |
| 20260506190538 | 72 | 148 | 7.0 | 14.8 | 0.00 | 0.00 | 0.00 | 78 | 1012.2 |
| 20260506190048 | 73 | 167 | 6.1 | 14.8 | 0.00 | 0.00 | 0.00 | 78 | 1012.1 |
| 20260506185538 | 74 | 150 | 6.1 | 13.9 | 0.00 | 0.00 | 0.00 | 76 | 1012.2 |
| 20260506185035 | 75 | 157 | 7.0 | 13.0 | 0.00 | 0.00 | 0.00 | 74 | 1012.3 |
| 20260506184551 | 77 | 170 | 1.7 | 6.1 | 0.00 | 0.00 | 0.00 | 76 | 1012.3 |
| 20260506184035 | 78 | 230 | 1.7 | 4.3 | 0.00 | 0.00 | 0.00 | 76 | 1012.3 |
| 20260506183535 | 78 | 216 | 1.7 | 5.2 | 0.00 | 0.00 | 0.00 | 76 | 1012.2 |
| 20260506183047 | 77 | 0 | 1.7 | 6.1 | 0.00 | 0.00 | 0.00 | 78 | 1012.1 |
| 20260506182535 | 77 | 239 | 2.6 | 7.8 | 0.00 | 0.00 | 0.00 | 76 | 1012.1 |
| 20260506182035 | 78 | 257 | 1.7 | 7.8 | 0.00 | 0.00 | 0.00 | 76 | 1012.1 |
| 20260506181548 | 78 | 286 | 1.7 | 7.0 | 0.00 | 0.00 | 0.00 | 75 | 1012.1 |
| 20260506181035 | 78 | 196 | 3.5 | 7.0 | 0.00 | 0.00 | 0.00 | 77 | 1012.0 |
| 20260506180535 | 77 | 245 | 1.7 | 6.1 | 0.00 | 0.00 | 0.00 | 76 | 1011.8 |
| 20260506180051 | 77 | 236 | 0.9 | 6.1 | 0.00 | 0.00 | 0.00 | 75 | 1012.0 |
| 20260506175537 | 77 | 166 | 2.6 | 7.0 | 0.00 | 0.00 | 0.00 | 76 | 1012.0 |
| 20260506175042 | 76 | 173 | 2.6 | 7.0 | 0.00 | 0.00 | 0.00 | 78 | 1012.0 |
| 20260506174544 | 76 | 217 | 2.6 | 7.8 | 0.00 | 0.00 | 0.00 | 76 | 1012.0 |
| 20260506174037 | 76 | 285 | 1.7 | 7.8 | 0.00 | 0.00 | 0.00 | 77 | 1011.9 |
| 20260506173539 | 76 | 307 | 1.7 | 7.8 | 0.00 | 0.00 | 0.00 | 76 | 1011.9 |
| 20260506173048 | 75 | 247 | 2.6 | 6.1 | 0.00 | 0.00 | 0.00 | 77 | 1011.9 |
| 20260506172535 | 75 | 230 | 3.5 | 6.1 | 0.00 | 0.00 | 0.00 | 77 | 1012.0 |
| 20260506172036 | 73 | 242 | 1.7 | 6.1 | 0.00 | 0.00 | 0.00 | 80 | 1012.0 |
| 20260506171553 | 72 | 246 | 1.7 | 6.1 | 0.00 | 0.00 | 0.00 | 81 | 1012.1 |
| 20260506171040 | 71 | 242 | 2.6 | 7.0 | 0.00 | 0.00 | 0.00 | 81 | 1012.1 |
| 20260506170540 | 70 | 261 | 3.5 | 7.8 | 0.00 | 0.00 | 0.00 | 80 | 1012.1 |
| 20260506170052 | 70 | 271 | 3.5 | 10.4 | 0.00 | 0.00 | 0.00 | 79 | 1012.2 |
| 20260506165539 | 70 | 171 | 3.5 | 10.4 | 0.00 | 0.00 | 0.00 | 80 | 1012.4 |
| 20260506165037 | 70 | 223 | 4.3 | 10.4 | 0.00 | 0.00 | 0.00 | 79 | 1012.4 |
| 20260506164552 | 71 | 196 | 2.6 | 8.7 | 0.00 | 0.00 | 0.00 | 81 | 1012.4 |
| 20260506164037 | 70 | 209 | 2.6 | 8.7 | 0.00 | 0.00 | 0.00 | 82 | 1012.3 |
| 20260506163537 | 69 | 224 | 4.3 | 13.0 | 0.00 | 0.00 | 0.00 | 83 | 1012.4 |
| 20260506163052 | 67 | 233 | 5.2 | 13.0 | 0.00 | 0.00 | 0.00 | 83 | 1012.4 |
| 20260506162537 | 67 | 215 | 6.1 | 13.0 | 0.00 | 0.00 | 0.00 | 83 | 1012.5 |
| 20260506162037 | 66 | 187 | 6.1 | 13.0 | 0.00 | 0.00 | 0.00 | 84 | 1012.7 |
| 20260506161553 | 65 | 205 | 7.0 | 15.6 | 0.00 | 0.00 | 0.00 | 84 | 1012.7 |
| 20260506161038 | 65 | 179 | 6.1 | 16.5 | 0.00 | 0.00 | 0.00 | 84 | 1012.6 |
| 20260506160537 | 65 | 181 | 7.0 | 19.1 | 0.00 | 0.00 | 0.00 | 84 | 1013.1 |
| 20260506160047 | 66 | 153 | 7.8 | 19.1 | 0.00 | 0.00 | 0.00 | 83 | 1013.2 |
| 20260506155537 | 68 | 119 | 12.2 | 19.1 | 0.00 | 0.00 | 0.00 | 79 | 1013.7 |
| 20260506155041 | 74 | 178 | 7.8 | 15.6 | 0.00 | 0.00 | 0.00 | 75 | 1013.8 |
| 20260506154601 | 76 | 139 | 0.9 | 3.5 | 0.00 | 0.00 | 0.00 | 83 | 1013.2 |
| 20260506154036 | 76 | 280 | 0.0 | 2.6 | 0.00 | 0.00 | 0.00 | 84 | 1012.4 |
| 20260506153534 | 76 | 244 | 0.0 | 2.6 | 0.00 | 0.00 | 0.00 | 83 | 1012.2 |
| 20260506153048 | 76 | 244 | 0.9 | 2.6 | 0.00 | 0.00 | 0.00 | 83 | 1012.4 |
| 20260506152535 | 76 | 250 | 0.0 | 1.7 | 0.00 | 0.00 | 0.00 | 83 | 1012.3 |
| 20260506152036 | 76 | 0 | 0.0 | 2.6 | 0.00 | 0.00 | 0.00 | 84 | 1012.0 |
| 20260506151558 | 76 | 193 | 0.0 | 2.6 | 0.00 | 0.00 | 0.00 | 83 | 1011.6 |
| 20260506151035 | 76 | 0 | 0.0 | 3.5 | 0.00 | 0.00 | 0.00 | 83 | 1011.6 |
| 20260506150535 | 75 | 0 | 0.0 | 3.5 | 0.00 | 0.00 | 0.00 | 83 | 1011.5 |
| 20260506150052 | 75 | 242 | 0.0 | 3.5 | 0.00 | 0.00 | 0.00 | 85 | 1011.4 |
| 20260506145538 | 75 | 305 | 0.0 | 3.5 | 0.00 | 0.00 | 0.00 | 85 | 1011.4 |
| 20260506145037 | 75 | 0 | 0.0 | 3.5 | 0.00 | 0.00 | 0.00 | 86 | 1011.3 |
| 20260506144555 | 75 | 0 | 0.9 | 3.5 | 0.00 | 0.00 | 0.00 | 87 | 1011.1 |
| 20260506144037 | 74 | 288 | 0.9 | 3.5 | 0.00 | 0.00 | 0.00 | 87 | 1011.1 |
| 20260506143537 | 74 | 322 | 0.9 | 4.3 | 0.00 | 0.00 | 0.00 | 87 | 1011.3 |
| 20260506143051 | 74 | 328 | 0.0 | 4.3 | 0.00 | 0.00 | 0.00 | 87 | 1011.2 |
| 20260506142538 | 74 | 0 | 0.9 | 6.1 | 0.00 | 0.00 | 0.00 | 88 | 1011.0 |
| 20260506142035 | 74 | 318 | 1.7 | 6.1 | 0.00 | 0.00 | 0.00 | 88 | 1010.7 |
| 20260506141549 | 74 | 290 | 1.7 | 6.1 | 0.00 | 0.00 | 0.00 | 89 | 1010.6 |
| 20260506141035 | 73 | 298 | 1.7 | 4.3 | 0.00 | 0.00 | 0.00 | 89 | 1010.8 |
| 20260506140537 | 73 | 292 | 0.9 | 3.5 | 0.00 | 0.00 | 0.00 | 89 | 1011.3 |
| 20260506140058 | 73 | 205 | 0.9 | 2.6 | 0.00 | 0.00 | 0.00 | 89 | 1011.3 |
| 20260506135534 | 73 | 244 | 0.0 | 2.6 | 0.00 | 0.00 | 0.00 | 89 | 1011.3 |
| 20260506135035 | 73 | 228 | 0.0 | 3.5 | 0.00 | 0.00 | 0.00 | 89 | 1011.2 |
| 20260506134552 | 73 | 254 | 0.0 | 3.5 | 0.00 | 0.00 | 0.00 | 89 | 1010.7 |
| 20260506134035 | 73 | 294 | 0.9 | 3.5 | 0.00 | 0.00 | 0.00 | 89 | 1010.2 |
| 20260506133535 | 73 | 312 | 0.0 | 3.5 | 0.00 | 0.00 | 0.00 | 89 | 1010.2 |
| 20260506133049 | 73 | 0 | 0.9 | 3.5 | 0.00 | 0.00 | 0.00 | 89 | 1010.2 |
| 20260506132534 | 73 | 332 | 0.9 | 3.5 | 0.00 | 0.00 | 0.00 | 89 | 1010.2 |
| 20260506132037 | 73 | 295 | 0.0 | 7.0 | 0.00 | 0.00 | 0.00 | 89 | 1010.3 |
| 20260506131545 | 73 | 292 | 0.9 | 7.0 | 0.00 | 0.00 | 0.00 | 89 | 1010.3 |
| 20260506131035 | 73 | 295 | 1.7 | 7.0 | 0.00 | 0.00 | 0.00 | 89 | 1010.2 |
| 20260506130537 | 73 | 284 | 0.9 | 3.5 | 0.00 | 0.00 | 0.00 | 89 | 1010.2 |
| 20260506130053 | 73 | 269 | 0.9 | 3.5 | 0.00 | 0.00 | 0.00 | 89 | 1010.1 |
| 20260506125537 | 73 | 0 | 0.9 | 3.5 | 0.00 | 0.00 | 0.00 | 90 | 1010.0 |
| 20260506125039 | 72 | 310 | 0.9 | 3.5 | 0.00 | 0.00 | 0.00 | 90 | 1009.8 |
| 20260506124541 | 72 | 297 | 0.9 | 3.5 | 0.00 | 0.00 | 0.00 | 90 | 1009.8 |
| 20260506124036 | 72 | 0 | 0.9 | 2.6 | 0.00 | 0.00 | 0.00 | 90 | 1009.7 |
| 20260506123537 | 72 | 312 | 0.9 | 2.6 | 0.00 | 0.00 | 0.00 | 90 | 1009.8 |
| 20260506123049 | 72 | 304 | 0.9 | 2.6 | 0.00 | 0.00 | 0.00 | 90 | 1009.8 |
| 20260506122535 | 72 | 287 | 0.0 | 2.6 | 0.00 | 0.00 | 0.00 | 90 | 1009.8 |
| 20260506122036 | 72 | 286 | 0.0 | 1.7 | 0.00 | 0.00 | 0.00 | 89 | 1009.8 |
| 20260506121550 | 72 | 313 | 0.0 | 2.6 | 0.00 | 0.00 | 0.00 | 89 | 1009.9 |
| 20260506121034 | 72 | 0 | 0.0 | 2.6 | 0.00 | 0.00 | 0.00 | 89 | 1010.0 |
| 20260506120537 | 72 | 320 | 0.0 | 1.7 | 0.00 | 0.00 | 0.00 | 89 | 1010.0 |
| 20260506120049 | 72 | 0 | 0.0 | 1.7 | 0.00 | 0.00 | 0.00 | 89 | 1009.9 |
| 20260506115537 | 72 | 0 | 0.0 | 1.7 | 0.00 | 0.00 | 0.00 | 89 | 1009.9 |
| 20260506115034 | 72 | 320 | 0.0 | 1.7 | 0.00 | 0.00 | 0.00 | 89 | 1009.8 |
| 20260506114556 | 72 | 0 | 0.0 | 1.7 | 0.00 | 0.00 | 0.00 | 89 | 1009.7 |
| 20260506114037 | 72 | 0 | 0.0 | 1.7 | 0.00 | 0.00 | 0.00 | 89 | 1009.7 |
| 20260506113535 | 72 | 0 | 0.0 | 0.9 | 0.00 | 0.00 | 0.00 | 89 | 1009.6 |
| 20260506113047 | 72 | 0 | 0.0 | 0.9 | 0.00 | 0.00 | 0.00 | 89 | 1009.7 |
| 20260506112535 | 72 | 0 | 0.0 | 0.0 | 0.00 | 0.00 | 0.00 | 89 | 1009.8 |
| 20260506112035 | 73 | 0 | 0.0 | 0.0 | 0.00 | 0.00 | 0.00 | 89 | 1009.7 |
| 20260506111551 | 73 | 0 | 0.0 | 0.0 | 0.00 | 0.00 | 0.00 | 89 | 1009.7 |
| 20260506111037 | 73 | 0 | 0.0 | 0.9 | 0.00 | 0.00 | 0.00 | 89 | 1009.6 |
| 20260506110536 | 73 | 0 | 0.0 | 0.9 | 0.00 | 0.00 | 0.00 | 88 | 1009.6 |
| 20260506110046 | 73 | 0 | 0.0 | 0.9 | 0.00 | 0.00 | 0.00 | 88 | 1009.7 |
| 20260506105536 | 73 | 0 | 0.0 | 2.6 | 0.00 | 0.00 | 0.00 | 88 | 1009.6 |
| 20260506105038 | 73 | 0 | 0.0 | 2.6 | 0.00 | 0.00 | 0.00 | 88 | 1009.6 |
| 20260506104554 | 73 | 0 | 0.0 | 3.5 | 0.00 | 0.00 | 0.00 | 88 | 1009.5 |
| 20260506104039 | 73 | 0 | 0.0 | 6.1 | 0.00 | 0.00 | 0.00 | 88 | 1009.4 |
| 20260506103538 | 73 | 0 | 0.0 | 6.1 | 0.00 | 0.00 | 0.00 | 88 | 1009.4 |
| 20260506103044 | 73 | 324 | 0.0 | 4.3 | 0.00 | 0.00 | 0.00 | 88 | 1009.3 |
| 20260506102630 | 73 | 310 | 0.0 | 4.3 | 0.00 | 0.00 | 0.00 | 88 | 1009.2 |
| 20260506102035 | 73 | 352 | 0.0 | 3.5 | 0.00 | 0.00 | 0.00 | 88 | 1009.1 |
| 20260506101552 | 73 | 0 | 0.0 | 4.3 | 0.00 | 0.00 | 0.00 | 88 | 1009.0 |
| 20260506101039 | 73 | 32 | 0.0 | 4.3 | 0.00 | 0.00 | 0.00 | 88 | 1009.0 |
| 20260506100536 | 73 | 0 | 0.0 | 3.5 | 0.00 | 0.00 | 0.00 | 88 | 1009.0 |
| 20260506100051 | 73 | 0 | 0.0 | 3.5 | 0.00 | 0.00 | 0.00 | 88 | 1009.0 |
| 20260506095537 | 73 | 329 | 0.9 | 3.5 | 0.00 | 0.00 | 0.00 | 88 | 1009.0 |
| 20260506095037 | 73 | 332 | 0.0 | 4.3 | 0.00 | 0.00 | 0.00 | 87 | 1009.1 |
| 20260506094551 | 73 | 0 | 0.9 | 4.3 | 0.00 | 0.00 | 0.00 | 87 | 1009.0 |
| 20260506094037 | 73 | 323 | 0.9 | 7.0 | 0.00 | 0.00 | 0.00 | 87 | 1008.8 |
| 20260506093536 | 73 | 334 | 1.7 | 7.0 | 0.00 | 0.00 | 0.00 | 87 | 1008.9 |
| 20260506093048 | 73 | 346 | 0.9 | 7.0 | 0.00 | 0.00 | 0.00 | 87 | 1008.8 |
| 20260506092535 | 73 | 333 | 0.9 | 7.0 | 0.00 | 0.00 | 0.00 | 87 | 1008.7 |
| 20260506092036 | 73 | 327 | 0.9 | 6.1 | 0.00 | 0.00 | 0.00 | 87 | 1008.7 |
| 20260506091545 | 73 | 333 | 0.9 | 6.1 | 0.00 | 0.00 | 0.00 | 87 | 1008.6 |
| 20260506091037 | 73 | 331 | 1.7 | 7.0 | 0.00 | 0.00 | 0.00 | 87 | 1008.4 |
| 20260506090537 | 73 | 331 | 1.7 | 7.0 | 0.00 | 0.00 | 0.00 | 87 | 1008.6 |
| 20260506090044 | 73 | 327 | 0.9 | 7.0 | 0.00 | 0.00 | 0.00 | 88 | 1008.4 |
| 20260506085536 | 73 | 333 | 0.9 | 7.0 | 0.00 | 0.00 | 0.00 | 88 | 1008.3 |
| 20260506085036 | 73 | 345 | 2.6 | 7.0 | 0.00 | 0.00 | 0.00 | 88 | 1008.3 |
| 20260506084553 | 73 | 9 | 1.7 | 7.0 | 0.00 | 0.00 | 0.00 | 88 | 1008.4 |
| 20260506084038 | 73 | 341 | 1.7 | 7.0 | 0.00 | 0.00 | 0.00 | 88 | 1008.3 |
| 20260506083535 | 73 | 0 | 0.9 | 5.2 | 0.00 | 0.00 | 0.00 | 88 | 1008.4 |
| 20260506083052 | 73 | 348 | 1.7 | 5.2 | 0.00 | 0.00 | 0.00 | 88 | 1008.4 |
| 20260506082537 | 73 | 311 | 1.7 | 7.0 | 0.00 | 0.00 | 0.00 | 88 | 1008.5 |
| 20260506082037 | 73 | 325 | 2.6 | 7.0 | 0.00 | 0.00 | 0.00 | 88 | 1008.4 |
| 20260506081545 | 73 | 296 | 0.9 | 7.0 | 0.00 | 0.00 | 0.00 | 88 | 1008.5 |
| 20260506081039 | 73 | 333 | 1.7 | 7.0 | 0.00 | 0.00 | 0.00 | 88 | 1008.5 |
| 20260506080538 | 73 | 342 | 1.7 | 7.0 | 0.00 | 0.00 | 0.00 | 88 | 1008.6 |
| 20260506073048 | 73 | 339 | 1.7 | 7.0 | 0.00 | 0.00 | 0.00 | 87 | 1008.9 |
| 20260506072537 | 73 | 5 | 2.6 | 7.0 | 0.00 | 0.00 | 0.00 | 87 | 1009.2 |
| 20260506072037 | 73 | 15 | 1.7 | 7.8 | 0.00 | 0.00 | 0.00 | 87 | 1009.0 |
| 20260506071542 | 73 | 349 | 2.6 | 7.8 | 0.00 | 0.00 | 0.00 | 87 | 1009.0 |
| 20260506071037 | 73 | 294 | 2.6 | 8.7 | 0.00 | 0.00 | 0.00 | 87 | 1009.0 |
| 20260506070538 | 73 | 309 | 2.6 | 11.3 | 0.00 | 0.00 | 0.00 | 87 | 1009.1 |
| 20260506062036 | 74 | 313 | 3.5 | 10.4 | 0.00 | 0.00 | 0.00 | 86 | 1009.3 |
| 20260506061555 | 74 | 316 | 1.7 | 10.4 | 0.00 | 0.00 | 0.00 | 86 | 1009.0 |
| 20260506061038 | 74 | 25 | 1.7 | 7.0 | 0.00 | 0.00 | 0.00 | 86 | 1009.1 |
| 20260506060537 | 74 | 308 | 1.7 | 7.0 | 0.00 | 0.00 | 0.00 | 86 | 1009.1 |
| 20260506051038 | 74 | 329 | 2.6 | 8.7 | 0.00 | 0.00 | 0.00 | 86 | 1009.3 |
| 20260506050534 | 74 | 331 | 2.6 | 8.7 | 0.00 | 0.00 | 0.00 | 86 | 1009.3 |
| 20260506045040 | 74 | 338 | 0.9 | 8.7 | 0.00 | 0.00 | 0.00 | 86 | 1009.4 |
| 20260506044557 | 74 | 341 | 1.7 | 8.7 | 0.00 | 0.00 | 0.00 | 86 | 1009.3 |
| 20260506044036 | 74 | 322 | 2.6 | 8.7 | 0.00 | 0.00 | 0.00 | 86 | 1009.2 |
| 20260506043535 | 75 | 324 | 3.5 | 9.6 | 0.00 | 0.00 | 0.00 | 86 | 1009.1 |
| 20260506043044 | 75 | 345 | 3.5 | 9.6 | 0.00 | 0.00 | 0.00 | 86 | 1009.2 |
| 20260506042535 | 75 | 340 | 2.6 | 7.0 | 0.00 | 0.00 | 0.00 | 86 | 1009.2 |
| 20260506042036 | 74 | 335 | 1.7 | 7.8 | 0.00 | 0.00 | 0.00 | 86 | 1009.2 |
| 20260506041542 | 74 | 317 | 2.6 | 7.8 | 0.00 | 0.00 | 0.00 | 86 | 1009.0 |
| 20260506041034 | 74 | 309 | 2.6 | 7.8 | 0.00 | 0.00 | 0.00 | 86 | 1008.8 |
| 20260506040535 | 74 | 281 | 1.7 | 7.0 | 0.00 | 0.00 | 0.00 | 86 | 1008.8 |
| 20260506040042 | 74 | 352 | 1.7 | 5.2 | 0.00 | 0.00 | 0.00 | 86 | 1008.8 |
| 20260506035537 | 74 | 327 | 1.7 | 5.2 | 0.00 | 0.00 | 0.00 | 86 | 1008.8 |
| 20260506035035 | 74 | 309 | 0.9 | 4.3 | 0.00 | 0.00 | 0.00 | 86 | 1008.6 |
| 20260506034547 | 74 | 309 | 1.7 | 5.2 | 0.00 | 0.00 | 0.00 | 86 | 1008.5 |
| 20260506034037 | 74 | 327 | 1.7 | 5.2 | 0.00 | 0.00 | 0.00 | 86 | 1008.5 |
| 20260506033537 | 74 | 315 | 0.9 | 4.3 | 0.00 | 0.00 | 0.00 | 86 | 1008.5 |
| 20260506033052 | 74 | 329 | 0.9 | 4.3 | 0.00 | 0.00 | 0.00 | 86 | 1008.6 |
| 20260506032535 | 74 | 0 | 0.9 | 3.5 | 0.00 | 0.00 | 0.00 | 85 | 1008.6 |
| 20260506032035 | 74 | 326 | 0.9 | 3.5 | 0.00 | 0.00 | 0.00 | 85 | 1008.5 |
| 20260506031544 | 74 | 311 | 0.9 | 3.5 | 0.00 | 0.00 | 0.00 | 85 | 1008.3 |
| 20260506031035 | 75 | 330 | 0.9 | 4.3 | 0.00 | 0.00 | 0.00 | 85 | 1008.3 |
| 20260506030539 | 75 | 329 | 0.9 | 4.3 | 0.00 | 0.00 | 0.00 | 84 | 1008.3 |
| 20260506030044 | 75 | 325 | 1.7 | 5.2 | 0.00 | 0.00 | 0.00 | 84 | 1008.3 |
| 20260506025535 | 75 | 311 | 1.7 | 5.2 | 0.00 | 0.00 | 0.00 | 84 | 1008.2 |
| 20260506025038 | 75 | 329 | 0.9 | 4.3 | 0.00 | 0.00 | 0.00 | 83 | 1008.2 |
| 20260506024552 | 75 | 318 | 1.7 | 5.2 | 0.00 | 0.00 | 0.00 | 83 | 1008.2 |
| 20260506024036 | 75 | 327 | 1.7 | 6.1 | 0.00 | 0.00 | 0.00 | 83 | 1008.2 |
| 20260506023536 | 75 | 313 | 1.7 | 6.1 | 0.00 | 0.00 | 0.00 | 83 | 1008.0 |
| 20260506023058 | 75 | 323 | 0.9 | 4.3 | 0.00 | 0.00 | 0.00 | 83 | 1008.1 |
| 20260506022537 | 75 | 319 | 0.9 | 3.5 | 0.00 | 0.00 | 0.00 | 82 | 1007.8 |
| 20260506022034 | 75 | 0 | 0.9 | 2.6 | 0.00 | 0.00 | 0.00 | 82 | 1007.8 |
| 20260506021555 | 75 | 0 | 0.0 | 3.5 | 0.00 | 0.00 | 0.00 | 82 | 1007.7 |